Weather History for Southampton, United Kingdom

Change the Weather History Date:

Monday, November 26, 2012

  Actual Average Record
Temperature  
Mean Temperature 46 °F -  
Max Temperature 51 °F 46 °F 55 °F (2004)
Min Temperature 42 °F 36 °F 24 °F (2010)
Degree Days  
Heating Degree Days 18    
Moisture  
Dew Point 42 °F    
Average Humidity 89    
Maximum Humidity 100    
Minimum Humidity 71    
Precipitation  
Precipitation 0.00 in - - ()
Sea Level Pressure  
Sea Level Pressure 29.47 in    
Wind  
Wind Speed 4 mph ()    
Max Wind Speed 10 mph    
Max Gust Speed 26 mph    
Visibility 6.1 miles    
Events Rain    
Averages and records for this station are not official NWS values.
T = Trace of Precipitation, MM = Missing Value Source: Averaged Metar Reports

Daily Weather History Graph

Daily Weather History Graph

Search for Another Location

Airport:

Trip Planner

Search our weather history database for the weather conditions in past years. The results will help you decide how hot, cold, wet, or windy it might be!

Date:

Astronomy

Nov. 26, 2012 Rise Set
Actual Time 7:39 AM GMT 4:05 PM GMT
Civil Twilight 7:01 AM GMT 4:43 PM GMT
Nautical Twilight 6:20 AM GMT 5:24 PM GMT
Astronomical Twilight 5:40 AM GMT 6:04 PM GMT
Moon 2:56 PM GMT (11/26) 5:27 AM GMT (11/26)
Length of Visible Light 9h 41m
Length of Day
8h 26m
Waxing Gibbous, 96% of the Moon is Illuminated
Nov 26
Waxing Gibbous
Nov 28
Full
Dec 6
Last Quarter
Dec 13
New
Dec 20
First Quarter

Hourly Weather History & Observations

Time (GMT) Temp. Windchill Dew Point Humidity Pressure Visibility Wind Dir Wind Speed Gust Speed Precip Events Conditions
5:50 AM 51.8 °F - 42.8 °F 71% 29.42 in 6.2 mi South 9.2 mph 26.5 mph N/A Rain Light Rain
6:20 AM 44.6 °F - 42.8 °F 93% 29.42 in 6.2 mi Variable 1.2 mph - N/A Rain Light Rain
6:50 AM 44.6 °F - 42.8 °F 93% 29.42 in 4.3 mi Variable 2.3 mph - N/A Rain Rain
7:20 AM 44.6 °F 43.1 °F 42.8 °F 93% 29.42 in 6.2 mi ENE 3.5 mph - N/A   Mostly Cloudy
7:50 AM 44.6 °F 43.1 °F 42.8 °F 93% 29.42 in 6.2 mi ENE 3.5 mph - N/A   Scattered Clouds
8:20 AM 44.6 °F - 42.8 °F 93% 29.44 in 6.2 mi Variable 1.2 mph - N/A   Partly Cloudy
8:50 AM 44.6 °F - 42.8 °F 93% 29.44 in 6.2 mi East 2.3 mph - N/A   Scattered Clouds
9:20 AM 44.6 °F - 42.8 °F 93% 29.44 in 6.2 mi East 2.3 mph - N/A   Light Drizzle
9:50 AM 44.6 °F - 42.8 °F 93% 29.44 in 6.2 mi NE 1.2 mph - N/A   Scattered Clouds
10:20 AM 44.6 °F - 44.6 °F 100% 29.44 in 6.2 mi Variable 1.2 mph - N/A Rain Light Rain Showers
10:50 AM 46.4 °F - 44.6 °F 93% 29.44 in 6.2 mi Calm Calm - N/A   Mostly Cloudy
11:20 AM 46.4 °F - 44.6 °F 93% 29.42 in 6.2 mi Variable 1.2 mph - N/A Rain Light Rain Showers
11:50 AM 46.4 °F - 44.6 °F 93% 29.42 in 6.2 mi Variable 2.3 mph - N/A   Scattered Clouds
12:20 PM 46.4 °F - 44.6 °F 93% 29.42 in 6.2 mi Variable 2.3 mph - N/A   Scattered Clouds
12:50 PM 48.2 °F - 42.8 °F 82% 29.42 in 6.2 mi NW 5.8 mph - N/A   Scattered Clouds
1:20 PM 46.4 °F 43.5 °F 42.8 °F 87% 29.44 in 6.2 mi NW 5.8 mph - N/A   Scattered Clouds
1:50 PM 46.4 °F 42.4 °F 42.8 °F 87% 29.44 in 6.2 mi NNW 8.1 mph - N/A   Scattered Clouds
2:20 PM 48.2 °F - 42.8 °F 82% 29.44 in 6.2 mi NW 6.9 mph - N/A   Mostly Cloudy
2:50 PM 46.4 °F 42.9 °F 42.8 °F 87% 29.47 in 6.2 mi NW 6.9 mph - N/A   Mostly Cloudy
3:20 PM 46.4 °F 42.9 °F 42.8 °F 87% 29.47 in 6.2 mi WNW 6.9 mph - N/A   Mostly Cloudy
3:50 PM 46.4 °F 42.9 °F 42.8 °F 87% 29.47 in 6.2 mi WNW 6.9 mph - N/A   Mostly Cloudy
4:20 PM 44.6 °F 40.7 °F 42.8 °F 93% 29.47 in 6.2 mi WNW 6.9 mph - N/A   Scattered Clouds
4:50 PM 44.6 °F 41.4 °F 42.8 °F 93% 29.50 in 6.2 mi WNW 5.8 mph - N/A   Scattered Clouds
5:20 PM 44.6 °F 41.4 °F 41.0 °F 87% 29.50 in 6.2 mi WNW 5.8 mph - N/A   Partly Cloudy
5:50 PM 42.8 °F 39.3 °F 41.0 °F 93% 29.50 in 6.2 mi West 5.8 mph - N/A   Partly Cloudy
6:20 PM 42.8 °F 39.3 °F 41.0 °F 93% 29.50 in 6.2 mi West 5.8 mph - N/A   Scattered Clouds
6:50 PM 44.6 °F 41.4 °F 41.0 °F 87% 29.50 in 6.2 mi West 5.8 mph - N/A   Mostly Cloudy
7:20 PM 44.6 °F 40.7 °F 41.0 °F 87% 29.53 in 6.2 mi West 6.9 mph - N/A   Scattered Clouds
7:50 PM 44.6 °F 41.4 °F 42.8 °F 93% 29.53 in 6.2 mi West 5.8 mph - N/A   Scattered Clouds
8:20 PM 44.6 °F 39.2 °F 41.0 °F 87% 29.53 in 6.2 mi NW 10.4 mph - N/A   Scattered Clouds
8:50 PM 44.6 °F 41.4 °F 39.2 °F 81% 29.53 in 6.2 mi WNW 5.8 mph - N/A   Scattered Clouds
9:20 PM 42.8 °F 38.6 °F 39.2 °F 87% 29.53 in 6.2 mi NW 6.9 mph - N/A   Mostly Cloudy
9:50 PM 42.8 °F 38.6 °F 39.2 °F 87% 29.56 in 6.2 mi WNW 6.9 mph - N/A   Mostly Cloudy
10:20 PM 42.8 °F 40.1 °F 39.2 °F 87% 29.56 in 6.2 mi WNW 4.6 mph - N/A   Mostly Cloudy